Dauntless Aviation
Greetings, Guest! To participate, [sign up for a free account] or [log in]
Airports South America Argentina
SABE
AEP

Aeroparque Jorge Newbery

Buenos Aires, ARGENTINA

Airport Info
Edit

Location

Latitude / Longitude: 34°33'33"S / 58°24'56"W
  34°33.552'S / 58°24.936'W
  -34.5592 / -58.4156

Nearby radio navigation aids

FDO SAN FERNANDO VOR/DME. 132.7° 10.6nm from FDO to field.
OP AEROPARQUE JORGE NEWBERY NDB. 131.1° 4.3nm from OP to field.

Runway Information

Runway 13 /31

Dimensions: 6890 x 131 ft.
Surface: ASP
 
Runway 13
Runway 31
Latitude: -34.553942 -34.563844
Longitude: -58.425247 -58.407506
Elevation: 18 ft. 18 ft.
Runway true heading: 126.3 306.3
 

Instrument Procedures

STARs (Standard Terminal Arrivals)

  STAR Rwy 13/16 PAGON7C SANANTONIO7C ASADA7C VALOS8C
  STAR Rwy 13/16 SURBO7A SARGO7C KOVUK7C TENIL7C BELGRANO7C
  STAR Rwy 31 SURBO2B SARGO7D KOVUK7D TENIL7D BELGRANO7D VALOS7D ASADA7D
  STAR Rwy 31 PAGON7D SANANTONIO7D

IAPs (Instrument Approach Procedures)

  VOR (DME) ILS (DME) Rwy 13 (From VANAR)
  VOR (DME) ILS (DME) Rwy 13
  LI ILS (DME) Rwy 13
  VOR (DME) LO LI Rwy 13 (From VANAR)
  LI LO LI Rwy 13
  LI Rwy 13 (From QUILMES)
  LI Rwy 31

Departure Procedures

  SID Rwy 13/31
  SID Rwy 13/31 Textual Description
  SID Rwy 13/31 LANDA3B BIVAM3B ATOVO3B
  SID 13/31 LANDA3B BIVAM3B ATOVO3B Textual Description
  SID Rwy 13/31 KUKEN7 SUROBO7 DORVO7 LAPLATA7
  SID Rwy 13/31 KUKEN7 SUROBO7 DORVO7 LAPLATA7 Textual Description
  SID S Rwy 13/31
  SID Rwy 13/31 Textual Description
Satellite photo at:
Airport distance calculator
From:
Weather Reports

METAR

SABE

SABE 281600Z 09006KT 2500 -TSRA SCT012 FEW050CB OVC050 20/19 Q1012
SADF
10.6nm W
SADF 281600Z 05005KT 7000 RA FEW010 OVC050 20/19 Q1011
SAEZ
16.2nm S
SAEZ 281600Z 05009KT 5000 -RA BKN009 OVC030 19/18 Q1011
SUCA
30.3nm NE
SUCA 281600Z 12010KT 5000 RA BKN010 FEW033CB 20/18 Q1009 RETS

TAF

SABE
TAF SABE 281100Z 2812/2912 14020G30KT 3000 TSRA BKN010 FEW040CB OVC040 TX26/2819Z TN17/2909Z BECMG 2819/2821 5000 RADZ BKN015 BKN040 BECMG 2904/2906 9999 BKN020
SADF
10.6nm W
TAF SADF 280500Z 2806/2906 36005KT 9999 SCT020 BKN100 TX27/2819Z TN20/2809Z BECMG 2807/2808 5000 TSRA BKN035 FEW045CB BECMG 2809/2811 24015KT BECMG 2811/2813 14010KT 7000 RADZ BKN018 BKN040 TEMPO 2814/2818 14015KT 9999 BKN020
SAEZ
16.2nm S
TAF SAEZ 281100Z 2812/2912 14015KT 7000 RA SCT020 BKN040 FEW050CB TX27/2818Z TN17/2909Z TEMPO 2812/2818 14020G35KT 4000 TSRA BR SCT010 FEW040CB OVC050 BECMG 2821/2824 13015G25KT 9999 NSW SCT030
SUCA
30.3nm NE
SUCA 281030Z 2812/2912 16020KT 5000 RA FEW030 SCT020 BKN080 TX25/2819Z TN19/2909Z PROB30 TEMPO 2812/2820 33015G28KT 3000 TSRA BKN015 FEW040CB OVC070 BECMG 2816/2818 16018KT
Safelog

 

Dauntless Aviation

© 2007-2015 Dauntless Aviation, all rights reserved
Information provided via PilotNav comes from a variety of official and unofficial data sources. As errors are possible, do not use PilotNav for primary flight planning purposes. Verify any information that you receive via PilotNav with current and canonical charts and other official documents. The material in this database is subject to database copyrights held by Dauntless Aviation and may not be copied without the express permission of Dauntless Aviation - licenses for use of part of all of this data are available for purchase; enquire via the Dauntless Aviation helpdesk. A number of mechanisms and markers exist in the database to protect against and identify infringement / copyright. Automated queries against this website are stictly prohibited, and all activity is logged and analyzed.